| time (UTC) | temp F | wind direction | speed MPH | gust MPH | rain 1hr in | rain 24hr in | rain mn in | humidity % | barometer mb |
| 20260504202511 | 68 | 170 | 5.0 | 17.0 | 0.00 | 0.00 | 0.00 | 36 | 1008.7 |
| 20260504202011 | 68 | 179 | 9.0 | 17.0 | 0.00 | 0.00 | 0.00 | 35 | 1008.7 |
| 20260504201526 | 68 | 202 | 3.0 | 19.0 | 0.00 | 0.00 | 0.00 | 36 | 1008.6 |
| 20260504201011 | 68 | 248 | 3.0 | 19.0 | 0.00 | 0.00 | 0.00 | 37 | 1008.7 |
| 20260504200509 | 68 | 207 | 7.0 | 17.0 | 0.00 | 0.00 | 0.00 | 37 | 1008.7 |
| 20260504200021 | 68 | 161 | 6.0 | 17.0 | 0.00 | 0.00 | 0.00 | 35 | 1008.8 |
| 20260504195507 | 68 | 186 | 4.0 | 14.0 | 0.00 | 0.00 | 0.00 | 34 | 1008.6 |
| 20260504195003 | 68 | 309 | 1.0 | 17.0 | 0.00 | 0.00 | 0.00 | 37 | 1008.6 |
| 20260504194517 | 68 | 178 | 6.0 | 17.0 | 0.00 | 0.00 | 0.00 | 36 | 1008.5 |
| 20260504194009 | 69 | 178 | 0.0 | 13.0 | 0.00 | 0.00 | 0.00 | 34 | 1008.7 |
| 20260504193509 | 69 | 311 | 2.0 | 13.0 | 0.00 | 0.00 | 0.00 | 34 | 1008.6 |
| 20260504193023 | 69 | 224 | 0.0 | 12.0 | 0.00 | 0.00 | 0.00 | 35 | 1008.7 |
| 20260504192509 | 69 | 262 | 0.0 | 15.0 | 0.00 | 0.00 | 0.00 | 35 | 1008.6 |
| 20260504192009 | 69 | 297 | 5.0 | 15.0 | 0.00 | 0.00 | 0.00 | 33 | 1008.8 |
| 20260504191546 | 69 | 186 | 1.0 | 10.0 | 0.00 | 0.00 | 0.00 | 33 | 1008.7 |
| 20260504191010 | 69 | 266 | 0.0 | 14.0 | 0.00 | 0.00 | 0.00 | 35 | 1008.8 |
| 20260504190507 | 68 | 136 | 4.0 | 14.0 | 0.00 | 0.00 | 0.00 | 32 | 1008.8 |
| 20260504190026 | 69 | 257 | 4.0 | 14.0 | 0.00 | 0.00 | 0.00 | 34 | 1008.8 |
| 20260504185506 | 68 | 240 | 0.0 | 19.0 | 0.00 | 0.00 | 0.00 | 33 | 1008.8 |
| 20260504185009 | 68 | 165 | 6.0 | 19.0 | 0.00 | 0.00 | 0.00 | 34 | 1008.9 |
| 20260504184515 | 68 | 213 | 1.0 | 21.0 | 0.00 | 0.00 | 0.00 | 32 | 1008.9 |
| 20260504184015 | 68 | 208 | 3.0 | 21.0 | 0.00 | 0.00 | 0.00 | 35 | 1009.0 |
| 20260504183507 | 68 | 198 | 2.0 | 11.0 | 0.00 | 0.00 | 0.00 | 35 | 1008.9 |
| 20260504183035 | 68 | 201 | 1.0 | 19.0 | 0.00 | 0.00 | 0.00 | 34 | 1009.0 |
| 20260504182509 | 67 | 197 | 4.0 | 22.0 | 0.00 | 0.00 | 0.00 | 33 | 1009.0 |
| 20260504182006 | 67 | 162 | 4.0 | 22.0 | 0.00 | 0.00 | 0.00 | 33 | 1009.1 |
| 20260504181505 | 67 | 142 | 2.0 | 16.0 | 0.00 | 0.00 | 0.00 | 33 | 1009.2 |
| 20260504181003 | 67 | 295 | 5.0 | 19.0 | 0.00 | 0.00 | 0.00 | 31 | 1009.2 |
| 20260504180509 | 67 | 175 | 6.0 | 19.0 | 0.00 | 0.00 | 0.00 | 33 | 1009.3 |
| 20260504180005 | 67 | 265 | 8.0 | 19.0 | 0.00 | 0.00 | 0.00 | 31 | 1009.5 |
| 20260504175502 | 67 | 179 | 4.0 | 16.0 | 0.00 | 0.00 | 0.00 | 34 | 1009.4 |
| 20260504175002 | 67 | 289 | 1.0 | 17.0 | 0.00 | 0.00 | 0.00 | 33 | 1009.3 |
| 20260504174507 | 66 | 225 | 5.0 | 17.0 | 0.00 | 0.00 | 0.00 | 32 | 1009.5 |
| 20260504174003 | 67 | 187 | 6.0 | 16.0 | 0.00 | 0.00 | 0.00 | 30 | 1009.7 |
| 20260504173503 | 67 | 129 | 6.0 | 16.0 | 0.00 | 0.00 | 0.00 | 30 | 1009.6 |
| 20260504173007 | 67 | 247 | 0.0 | 16.0 | 0.00 | 0.00 | 0.00 | 33 | 1009.7 |
| 20260504172504 | 66 | 101 | 7.0 | 20.0 | 0.00 | 0.00 | 0.00 | 31 | 1009.7 |
| 20260504172004 | 66 | 324 | 4.0 | 20.0 | 0.00 | 0.00 | 0.00 | 34 | 1009.7 |
| 20260504171508 | 66 | 219 | 6.0 | 17.0 | 0.00 | 0.00 | 0.00 | 31 | 1009.8 |
| 20260504171005 | 66 | 37 | 3.0 | 18.0 | 0.00 | 0.00 | 0.00 | 30 | 1009.8 |
| 20260504170503 | 66 | 234 | 6.0 | 18.0 | 0.00 | 0.00 | 0.00 | 32 | 1009.9 |
| 20260504151003 | 63 | 263 | 4.0 | 13.0 | 0.00 | 0.00 | 0.00 | 36 | 1010.9 |
| 20260504150506 | 63 | 137 | 4.0 | 14.0 | 0.00 | 0.00 | 0.00 | 38 | 1010.8 |
| 20260504141006 | 61 | 264 | 5.0 | 17.0 | 0.00 | 0.00 | 0.00 | 39 | 1011.5 |
| 20260504140504 | 60 | 107 | 3.0 | 18.0 | 0.00 | 0.00 | 0.00 | 41 | 1011.6 |
| 20260504130504 | 58 | 274 | 4.0 | 13.0 | 0.00 | 0.00 | 0.00 | 44 | 1012.0 |
| 20260504110506 | 33 | 250 | 0.0 | 0.0 | 0.00 | 0.00 | 0.00 | 85 | 1012.3 |
| 20260504100507 | 31 | 250 | 0.0 | 0.0 | 0.00 | 0.00 | 0.00 | 84 | 1012.0 |
| 20260504082006 | 34 | 250 | 0.0 | 0.0 | 0.00 | 0.00 | 0.00 | 81 | 1011.5 |
| 20260504081518 | 34 | 250 | 0.0 | 0.0 | 0.00 | 0.00 | 0.00 | 81 | 1011.5 |
| 20260504081009 | 35 | 250 | 0.0 | 0.0 | 0.00 | 0.00 | 0.00 | 80 | 1011.5 |
| 20260504080508 | 35 | 250 | 0.0 | 0.0 | 0.00 | 0.00 | 0.00 | 81 | 1011.5 |
| 20260504050504 | 32 | 250 | 0.0 | 0.0 | 0.00 | 0.00 | 0.00 | 81 | 1011.6 |
| 20260504050010 | 32 | 250 | 0.0 | 0.0 | 0.00 | 0.00 | 0.00 | 81 | 1011.6 |
| 20260504045503 | 32 | 250 | 0.0 | 0.0 | 0.00 | 0.00 | 0.00 | 80 | 1011.6 |
| 20260504045003 | 33 | 250 | 0.0 | 0.0 | 0.00 | 0.00 | 0.00 | 80 | 1011.7 |
| 20260504044522 | 33 | 250 | 0.0 | 0.0 | 0.00 | 0.00 | 0.00 | 80 | 1011.8 |
| 20260504044009 | 33 | 250 | 0.0 | 0.0 | 0.00 | 0.00 | 0.00 | 79 | 1011.7 |
| 20260504043506 | 33 | 250 | 0.0 | 0.0 | 0.00 | 0.00 | 0.00 | 79 | 1011.8 |
| 20260504043026 | 33 | 250 | 0.0 | 0.0 | 0.00 | 0.00 | 0.00 | 79 | 1011.8 |
| 20260504042509 | 33 | 250 | 0.0 | 0.0 | 0.00 | 0.00 | 0.00 | 79 | 1011.8 |
| 20260504042007 | 33 | 250 | 0.0 | 0.0 | 0.00 | 0.00 | 0.00 | 79 | 1011.7 |
| 20260504041525 | 33 | 250 | 0.0 | 0.0 | 0.00 | 0.00 | 0.00 | 79 | 1011.6 |
| 20260504041008 | 33 | 250 | 0.0 | 0.0 | 0.00 | 0.00 | 0.00 | 79 | 1011.7 |
| 20260504040507 | 33 | 250 | 0.0 | 0.0 | 0.00 | 0.00 | 0.00 | 78 | 1011.5 |
| 20260504040027 | 33 | 250 | 0.0 | 0.0 | 0.00 | 0.00 | 0.00 | 78 | 1011.5 |
| 20260504035510 | 33 | 250 | 0.0 | 0.0 | 0.00 | 0.00 | 0.00 | 78 | 1011.5 |
| 20260504035004 | 33 | 250 | 0.0 | 0.0 | 0.00 | 0.00 | 0.00 | 78 | 1011.4 |
| 20260504034511 | 33 | 250 | 0.0 | 0.0 | 0.00 | 0.00 | 0.00 | 78 | 1011.4 |
| 20260504034003 | 34 | 250 | 0.0 | 0.0 | 0.00 | 0.00 | 0.00 | 78 | 1011.3 |
| 20260504033503 | 34 | 250 | 0.0 | 0.0 | 0.00 | 0.00 | 0.00 | 77 | 1011.3 |
| 20260504033018 | 34 | 250 | 0.0 | 0.0 | 0.00 | 0.00 | 0.00 | 78 | 1011.3 |
| 20260504032507 | 34 | 250 | 0.0 | 0.0 | 0.00 | 0.00 | 0.00 | 78 | 1011.3 |
| 20260504032011 | 34 | 250 | 0.0 | 0.0 | 0.00 | 0.00 | 0.00 | 77 | 1011.3 |
| 20260504031522 | 34 | 250 | 0.0 | 0.0 | 0.00 | 0.00 | 0.00 | 78 | 1011.3 |
| 20260504031006 | 34 | 250 | 0.0 | 0.0 | 0.00 | 0.00 | 0.00 | 78 | 1011.3 |
| 20260504030507 | 34 | 250 | 0.0 | 0.0 | 0.00 | 0.00 | 0.00 | 77 | 1011.2 |
| 20260504030040 | 34 | 250 | 0.0 | 0.0 | 0.00 | 0.00 | 0.00 | 77 | 1011.2 |
| 20260504025512 | 34 | 250 | 0.0 | 0.0 | 0.00 | 0.00 | 0.00 | 77 | 1011.1 |
| 20260504025010 | 34 | 250 | 0.0 | 0.0 | 0.00 | 0.00 | 0.00 | 76 | 1011.0 |
| 20260504024528 | 35 | 250 | 0.0 | 0.0 | 0.00 | 0.00 | 0.00 | 76 | 1011.0 |
| 20260504024012 | 35 | 250 | 0.0 | 0.0 | 0.00 | 0.00 | 0.00 | 76 | 1011.0 |
| 20260504023509 | 35 | 250 | 0.0 | 0.0 | 0.00 | 0.00 | 0.00 | 75 | 1011.0 |
| 20260504023014 | 35 | 250 | 0.0 | 0.0 | 0.00 | 0.00 | 0.00 | 75 | 1011.0 |
| 20260504022509 | 35 | 250 | 0.0 | 0.0 | 0.00 | 0.00 | 0.00 | 74 | 1011.0 |
| 20260504022008 | 35 | 250 | 0.0 | 0.0 | 0.00 | 0.00 | 0.00 | 74 | 1010.9 |
| 20260504021520 | 35 | 250 | 0.0 | 0.0 | 0.00 | 0.00 | 0.00 | 74 | 1010.9 |
| 20260504021006 | 35 | 250 | 0.0 | 0.0 | 0.00 | 0.00 | 0.00 | 72 | 1010.9 |
| 20260504020508 | 35 | 250 | 0.0 | 0.0 | 0.00 | 0.00 | 0.00 | 73 | 1010.9 |
| 20260504020023 | 36 | 250 | 0.0 | 0.0 | 0.00 | 0.00 | 0.00 | 72 | 1010.9 |
| 20260504015506 | 36 | 250 | 0.0 | 0.0 | 0.00 | 0.00 | 0.00 | 72 | 1010.8 |
| 20260504015006 | 36 | 250 | 0.0 | 0.0 | 0.00 | 0.00 | 0.00 | 71 | 1010.9 |
| 20260504014517 | 36 | 250 | 0.0 | 0.0 | 0.00 | 0.00 | 0.00 | 70 | 1010.8 |
| 20260504014005 | 36 | 250 | 0.0 | 0.0 | 0.00 | 0.00 | 0.00 | 70 | 1010.8 |
| 20260504013503 | 37 | 250 | 0.0 | 0.0 | 0.00 | 0.00 | 0.00 | 69 | 1010.8 |
| 20260504013010 | 37 | 250 | 0.0 | 0.0 | 0.00 | 0.00 | 0.00 | 69 | 1010.7 |
| 20260504012503 | 37 | 250 | 0.0 | 0.0 | 0.00 | 0.00 | 0.00 | 68 | 1010.7 |
| 20260504012006 | 37 | 250 | 0.0 | 0.0 | 0.00 | 0.00 | 0.00 | 68 | 1010.7 |
| 20260504011516 | 38 | 250 | 0.0 | 0.0 | 0.00 | 0.00 | 0.00 | 67 | 1010.6 |
| 20260504011006 | 38 | 250 | 0.0 | 0.0 | 0.00 | 0.00 | 0.00 | 67 | 1010.5 |
| 20260504010506 | 38 | 250 | 0.0 | 0.0 | 0.00 | 0.00 | 0.00 | 65 | 1010.4 |
| 20260504010023 | 39 | 250 | 0.0 | 0.0 | 0.00 | 0.00 | 0.00 | 65 | 1010.3 |
| 20260504005507 | 39 | 250 | 0.0 | 0.0 | 0.00 | 0.00 | 0.00 | 64 | 1010.2 |
| 20260504005008 | 39 | 250 | 0.0 | 0.0 | 0.00 | 0.00 | 0.00 | 64 | 1010.2 |
| 20260504004529 | 40 | 250 | 0.0 | 0.0 | 0.00 | 0.00 | 0.00 | 61 | 1010.1 |
| 20260504004010 | 40 | 250 | 0.0 | 0.0 | 0.00 | 0.00 | 0.00 | 61 | 1010.0 |
| 20260504003508 | 40 | 250 | 0.0 | 0.0 | 0.00 | 0.00 | 0.00 | 60 | 1009.9 |
| 20260504003031 | 41 | 250 | 0.0 | 0.0 | 0.00 | 0.00 | 0.00 | 60 | 1009.8 |
| 20260504002505 | 41 | 250 | 0.0 | 0.0 | 0.00 | 0.00 | 0.00 | 60 | 1009.8 |
| 20260504002003 | 42 | 250 | 0.0 | 0.0 | 0.00 | 0.00 | 0.00 | 57 | 1009.6 |
| 20260504001512 | 43 | 250 | 0.0 | 0.0 | 0.00 | 0.00 | 0.00 | 56 | 1009.5 |
| 20260504001003 | 44 | 250 | 0.0 | 0.0 | 0.00 | 0.00 | 0.00 | 57 | 1009.5 |
| 20260504000504 | 44 | 250 | 0.0 | 0.0 | 0.00 | 0.00 | 0.00 | 55 | 1009.5 |
| 20260504000019 | 45 | 250 | 0.0 | 0.0 | 0.00 | 0.00 | 0.00 | 52 | 1009.4 |
| 20260503235507 | 46 | 250 | 0.0 | 0.0 | 0.00 | 0.00 | 0.00 | 51 | 1009.4 |
| 20260503235010 | 47 | 250 | 0.0 | 0.0 | 0.00 | 0.00 | 0.00 | 49 | 1009.4 |
| 20260503234535 | 48 | 250 | 0.0 | 0.0 | 0.00 | 0.00 | 0.00 | 47 | 1009.4 |
| 20260503234011 | 49 | 250 | 0.0 | 0.0 | 0.00 | 0.00 | 0.00 | 46 | 1009.3 |
| 20260503233509 | 49 | 250 | 0.0 | 0.0 | 0.00 | 0.00 | 0.00 | 41 | 1009.3 |
| 20260503233024 | 50 | 250 | 0.0 | 4.0 | 0.00 | 0.00 | 0.00 | 41 | 1009.3 |
| 20260503232507 | 50 | 250 | 1.0 | 4.0 | 0.00 | 0.00 | 0.00 | 40 | 1009.2 |
| 20260503232010 | 50 | 256 | 0.0 | 4.0 | 0.00 | 0.00 | 0.00 | 40 | 1009.2 |
| 20260503231527 | 50 | 317 | 0.0 | 5.0 | 0.00 | 0.00 | 0.00 | 40 | 1009.2 |
| 20260503231009 | 51 | 328 | 0.0 | 5.0 | 0.00 | 0.00 | 0.00 | 39 | 1009.2 |
| 20260503230504 | 51 | 309 | 0.0 | 8.0 | 0.00 | 0.00 | 0.00 | 39 | 1009.2 |
| 20260503230028 | 51 | 351 | 1.0 | 10.0 | 0.00 | 0.00 | 0.00 | 39 | 1009.2 |
| 20260503225509 | 51 | 329 | 3.0 | 10.0 | 0.00 | 0.00 | 0.00 | 38 | 1009.1 |
| 20260503225005 | 51 | 293 | 4.0 | 10.0 | 0.00 | 0.00 | 0.00 | 38 | 1009.1 |
| 20260503224528 | 51 | 350 | 1.0 | 10.0 | 0.00 | 0.00 | 0.00 | 38 | 1009.0 |
| 20260503224009 | 52 | 297 | 2.0 | 10.0 | 0.00 | 0.00 | 0.00 | 38 | 1009.0 |
| 20260503223507 | 52 | 311 | 0.0 | 14.0 | 0.00 | 0.00 | 0.00 | 38 | 1008.9 |
| 20260503223024 | 51 | 335 | 2.0 | 14.0 | 0.00 | 0.00 | 0.00 | 38 | 1009.0 |
| 20260503222508 | 52 | 325 | 5.0 | 13.0 | 0.00 | 0.00 | 0.00 | 38 | 1008.9 |
| 20260503222007 | 52 | 20 | 4.0 | 13.0 | 0.00 | 0.00 | 0.00 | 39 | 1009.0 |
| 20260503221526 | 52 | 347 | 1.0 | 20.0 | 0.00 | 0.00 | 0.00 | 39 | 1008.9 |
| 20260503221009 | 51 | 351 | 8.0 | 20.0 | 0.00 | 0.00 | 0.00 | 37 | 1008.8 |
| 20260503220514 | 51 | 342 | 6.0 | 16.0 | 0.00 | 0.00 | 0.00 | 38 | 1009.0 |
| 20260503220029 | 51 | 339 | 5.0 | 16.0 | 0.00 | 0.00 | 0.00 | 39 | 1008.9 |
| 20260503215511 | 51 | 207 | 4.0 | 14.0 | 0.00 | 0.00 | 0.00 | 39 | 1008.9 |
| 20260503215006 | 51 | 310 | 3.0 | 14.0 | 0.00 | 0.00 | 0.00 | 39 | 1008.9 |
| 20260503214516 | 52 | 349 | 8.0 | 14.0 | 0.00 | 0.00 | 0.00 | 38 | 1009.0 |
| 20260503214004 | 52 | 19 | 6.0 | 16.0 | 0.00 | 0.00 | 0.00 | 39 | 1008.8 |
| 20260503213508 | 52 | 5 | 5.0 | 19.0 | 0.00 | 0.00 | 0.00 | 40 | 1008.7 |
| 20260503213031 | 51 | 317 | 11.0 | 19.0 | 0.00 | 0.00 | 0.00 | 39 | 1008.7 |
| 20260503212509 | 51 | 120 | 9.0 | 19.0 | 0.00 | 0.00 | 0.00 | 40 | 1008.6 |
| 20260503212009 | 51 | 327 | 7.0 | 15.0 | 0.00 | 0.00 | 0.00 | 39 | 1008.6 |
| 20260503211523 | 52 | 308 | 7.0 | 14.0 | 0.00 | 0.00 | 0.00 | 39 | 1008.6 |
| 20260503211006 | 52 | 19 | 6.0 | 22.0 | 0.00 | 0.00 | 0.00 | 40 | 1008.5 |
| 20260503210514 | 51 | 343 | 9.0 | 22.0 | 0.00 | 0.00 | 0.00 | 39 | 1008.5 |
| 20260503210027 | 52 | 313 | 7.0 | 18.0 | 0.00 | 0.00 | 0.00 | 39 | 1008.3 |
| 20260503205509 | 52 | 277 | 6.0 | 21.0 | 0.00 | 0.00 | 0.00 | 39 | 1008.4 |
| 20260503205009 | 51 | 304 | 5.0 | 21.0 | 0.00 | 0.00 | 0.00 | 38 | 1008.2 |
| 20260503204542 | 51 | 261 | 7.0 | 21.0 | 0.00 | 0.00 | 0.00 | 39 | 1008.2 |
| 20260503204002 | 52 | 327 | 10.0 | 20.0 | 0.00 | 0.00 | 0.00 | 39 | 1008.2 |
| 20260503203511 | 51 | 333 | 7.0 | 17.0 | 0.00 | 0.00 | 0.00 | 40 | 1008.2 |
| 20260503203028 | 50 | 298 | 8.0 | 17.0 | 0.00 | 0.00 | 0.00 | 40 | 1008.2 |